Regional Weather Roundup
Issued by NWS Albany, NY

Home | Current Version | Previous Version | Graphics & Text | Print | Product List | Glossary Off
Versions: 1 2 3 4 5 6 7 8 9 10 11 12 13 14 15 16 17 18 19 20 21 22 23 24 25 26 27

000
ASUS41 KALY 281010
RWRALY

NEW YORK STATE HOURLY WEATHER ROUNDUP
NATIONAL WEATHER SERVICE ALBANY NY
600 AM EDT THU JUL 28 2016

NOTE: "FAIR" INDICATES FEW OR NO CLOUDS BELOW 12,000 FEET WITH NO
SIGNIFICANT WEATHER AND/OR NO OBSTRUCTIONS TO VISIBILITY.

NYZ032-033-038>043-046>054-057>066-NYZ062>081-082-084-281100-
EAST


CITY           SKY/WX    TMP DP  RH WIND       PRES   REMARKS
ALBANY         PTCLDY    66  61  84 CALM      29.91R
GLENS FALLS    PTCLDY    64  61  90 CALM      29.90R
POUGHKEEPSIE   CLEAR     65  61  87 CALM      29.91S
NEWBURGH       CLEAR     66  63  88 CALM      29.94S
MONTGOMERY     CLEAR     63  62  97 CALM      29.93R
WHITE PLAINS   CLEAR     69  67  93 NW6       29.92S
ISLIP          MOCLDY    74  73  97 CALM      29.91R FOG
NEW YORK CITY  PTCLDY    80  72  76 NW5       29.90S
CENTRAL PARK   CLEAR     77  71  82 CALM      29.93S
$$

NYZ005>009-017-018-044>046-055-056-281100-
CENTRAL


CITY           SKY/WX    TMP DP  RH WIND       PRES   REMARKS
FULTON         PTCLDY    69  64  84 CALM      29.91R
SYRACUSE       MOCLDY    68  64  87 CALM      29.90S
ROME           PTCLDY    64  63  96 CALM      29.93R
ELMIRA         PTCLDY    61  58  90 SW3       29.95R
BINGHAMTON     CLEAR     64  59  83 CALM      29.97S
MONTICELLO     CLEAR     59  57  94 CALM      29.98S
$$

NYZ026>034-041>043-087-281100-
NORTH


CITY           SKY/WX    TMP DP  RH WIND       PRES   REMARKS
WATERTOWN      PTCLDY    69  67  93 S3        29.89R
FORT DRUM      NOT AVBL
MASSENA        MOCLDY    66  63  90 CALM      29.89R
SARANAC LAKE   PTCLDY    58  55  90 CALM      29.94R
PLATTSBURGH    MOCLDY    69  65  86 CALM      29.87R
$$

NYZ001>004-010>016-019>021-085-281100-
WEST


CITY           SKY/WX    TMP DP  RH WIND       PRES   REMARKS
NIAGARA FALLS  PTCLDY    69  64  84 NE3       29.91S
BUFFALO        PTCLDY    69  60  73 S3        29.93R
DUNKIRK        PTCLDY    62  58  86 S6        29.93R
JAMESTOWN      PTCLDY    63  57  82 CALM      29.98S
WELLSVILLE     CLEAR     60  57  89 CALM      30.01S
ROCHESTER      MOCLDY    67  63  87 SW6       29.93R
PENN YAN       CLEAR     67  63  87 SW3       29.95R
$$

             KEY
       WCI = WIND CHILL INDEX
       VSB = VISIBILITY
       HX  = HEAT INDEX
$$




USA.gov is the U.S. government's official web portal to all federal, state and local government web resources and services.